Rolla, MO

9:00 PM CDT on April 19, 2018 (GMT -0500)
Rolla National

Weather History for KVIH - March, 2014

Change the Weather History Date:

Sunday, March 16, 2014

  Actual Average Record
Temperature  
Mean Temperature 37 °F 45 °F  
Max Temperature 53 °F 56 °F 79 °F (2012)
Min Temperature 20 °F 34 °F 14 °F (1900)
Degree Days  
Heating Degree Days 28 20  
Month to date heating degree days 413 358  
Since 1 July heating degree days 4719 4148  
Cooling Degree Days 0 0  
Month to date cooling degree days 0 0  
Year to date cooling degree days 0 0  
Moisture  
Dew Point 25 °F    
Average Humidity 73    
Maximum Humidity 92    
Minimum Humidity 54    
Precipitation  
Precipitation 0.13 in 0.11 in 0.83 in (1980)
Month to date precipitation 0.52 1.51  
Year to date precipitation 1.98 5.61  
Sea Level Pressure  
Sea Level Pressure 29.99 in    
Wind  
Wind Speed 18 mph (NNE)    
Max Wind Speed 30 mph    
Max Gust Speed 40 mph    
Visibility 4 miles    
Events Fog , Rain , Snow    
T = Trace of Precipitation, MM = Missing Value Source: NWS Daily Summary

Daily Weather History Graph

Daily Weather History Graph

Search for Another Location

Airport or City:

Astronomy

Mar. 16, 2014 Rise Set
Actual Time 7:16 AM CDT 7:15 PM CDT
Civil Twilight 6:50 AM CDT 7:41 PM CDT
Nautical Twilight 6:19 AM CDT 8:12 PM CDT
Astronomical Twilight 5:48 AM CDT 8:43 PM CDT
Moon 7:32 PM CDT (3/16) 7:00 AM CDT (3/16)
Length of Visible Light 12h 51m
Length of Day
11h 58m
Full, 100% of the Moon is Illuminated
Mar 16
Full
Mar 16
Full
Mar 23
Last Quarter
Mar 30
New
Apr 7
First Quarter

Hourly Weather History & Observations

Time (CDT) Temp. Windchill Dew Point Humidity Pressure Visibility Wind Dir Wind Speed Gust Speed Precip Events Conditions
12:53 AM 53.1 °F - 41.0 °F 64% 29.85 in 10.0 mi SE 4.6 mph - N/A   Clear
1:53 AM 52.0 °F - 42.1 °F 69% 29.84 in 10.0 mi NE 9.2 mph - N/A   Clear
2:53 AM 51.1 °F - 36.0 °F 56% 29.84 in 10.0 mi NE 16.1 mph - N/A   Unknown
3:53 AM 46.0 °F 38.8 °F 35.1 °F 66% 29.82 in 10.0 mi NE 18.4 mph - N/A   Overcast
4:53 AM 39.9 °F 30.2 °F 32.0 °F 73% 29.84 in 10.0 mi NE 20.7 mph 32.2 mph N/A   Overcast
5:53 AM 34.0 °F 21.8 °F 30.9 °F 89% 29.86 in 4.0 mi NE 23.0 mph 32.2 mph 0.03 in Rain Rain
6:24 AM 33.1 °F 21.5 °F 30.0 °F 89% 29.87 in 4.0 mi NE 19.6 mph 29.9 mph 0.05 in Rain Rain
6:53 AM 32.0 °F 19.8 °F 28.0 °F 85% 29.88 in 5.0 mi NNE 20.7 mph 28.8 mph 0.08 in   Overcast
7:07 AM 32.0 °F 19.5 °F 28.0 °F 85% 29.88 in 6.0 mi NE 21.9 mph 28.8 mph 0.01 in Rain Light Freezing Rain
7:53 AM 32.0 °F 19.2 °F 28.0 °F 85% 29.92 in 7.0 mi NNE 23.0 mph 34.5 mph 0.02 in Rain Light Freezing Rain
8:53 AM 30.0 °F 16.0 °F 27.0 °F 88% 29.98 in 4.0 mi NE 25.3 mph 35.7 mph 0.00 in Rain Light Freezing Rain
9:16 AM 30.0 °F 17.2 °F 26.1 °F 85% 29.97 in 2.5 mi NE 20.7 mph 31.1 mph 0.00 in Rain Light Freezing Rain
9:39 AM 28.9 °F 15.8 °F 26.1 °F 89% 29.98 in 3.0 mi NNE 20.7 mph 34.5 mph N/A Rain Light Freezing Rain
9:42 AM 28.9 °F 15.8 °F 26.1 °F 89% 29.98 in 2.5 mi NE 20.7 mph 28.8 mph N/A Snow Light Snow
9:53 AM 28.9 °F 14.8 °F 26.1 °F 89% 30.00 in 1.2 mi NE 24.2 mph 31.1 mph N/A Snow Light Snow
9:57 AM 28.9 °F 16.1 °F 26.1 °F 89% 29.99 in 0.8 mi NE 19.6 mph 31.1 mph N/A Snow Light Snow
10:02 AM 28.9 °F 14.8 °F 26.1 °F 89% 29.99 in 0.5 mi NE 24.2 mph 40.3 mph N/A Fog , Snow Snow
10:22 AM 28.0 °F 13.3 °F 26.1 °F 92% 29.99 in 0.5 mi NE 25.3 mph 33.4 mph N/A Fog , Snow Snow
10:34 AM 28.0 °F 13.3 °F 26.1 °F 92% 29.99 in 0.5 mi NNE 25.3 mph 32.2 mph N/A Fog , Snow Snow
10:53 AM 28.0 °F 13.6 °F 25.0 °F 88% 30.01 in 0.8 mi NNE 24.2 mph 36.8 mph N/A Snow Light Snow
11:20 AM 28.9 °F 14.8 °F 25.0 °F 85% 30.00 in 1.0 mi NNE 24.2 mph 32.2 mph N/A Snow Light Snow
11:53 AM 28.0 °F 14.3 °F 25.0 °F 88% 30.03 in 0.8 mi NNE 21.9 mph 34.5 mph N/A Snow Light Snow
12:00 PM 28.0 °F 15.3 °F 26.1 °F 92% 30.01 in 1.0 mi NNE 18.4 mph - N/A Snow Light Snow
12:07 PM 28.0 °F 13.9 °F 25.0 °F 88% 30.01 in 0.8 mi NNE 23.0 mph 29.9 mph N/A Snow Light Snow
12:16 PM 28.0 °F 14.6 °F 25.0 °F 88% 30.01 in 1.0 mi NNE 20.7 mph 28.8 mph N/A Snow Light Snow
12:29 PM 28.0 °F 14.6 °F 25.0 °F 88% 30.01 in 0.8 mi NNE 20.7 mph - N/A Snow Light Snow
12:32 PM 28.0 °F 15.7 °F 25.0 °F 88% 30.01 in 0.8 mi NNE 17.3 mph 26.5 mph N/A Snow Light Snow
12:53 PM 28.0 °F 13.6 °F 26.1 °F 92% 30.03 in 0.8 mi NNE 24.2 mph 28.8 mph N/A Snow Light Snow
1:00 PM 28.0 °F 13.9 °F 24.1 °F 85% 30.01 in 0.8 mi NNE 23.0 mph 35.7 mph N/A Snow Light Snow
1:12 PM 28.0 °F 14.9 °F 25.0 °F 88% 30.02 in 0.8 mi NNE 19.6 mph 28.8 mph N/A Snow Light Snow
1:24 PM 28.0 °F 16.5 °F 26.1 °F 92% 30.01 in 0.5 mi North 15.0 mph 26.5 mph N/A Fog , Snow Snow
1:41 PM 28.0 °F 14.9 °F 25.0 °F 88% 30.02 in 0.8 mi NNE 19.6 mph 33.4 mph N/A Snow Light Snow
1:53 PM 27.0 °F 12.2 °F 24.1 °F 89% 30.03 in 0.8 mi North 24.2 mph 29.9 mph N/A Snow Light Snow
2:09 PM 28.0 °F 15.7 °F 25.0 °F 88% 30.01 in 1.0 mi North 17.3 mph 27.6 mph N/A Snow Light Snow
2:15 PM 27.0 °F 13.2 °F 24.1 °F 89% 30.01 in 0.8 mi North 20.7 mph 27.6 mph N/A Snow Light Snow
2:24 PM 27.0 °F 13.2 °F 24.1 °F 89% 30.01 in 1.0 mi NNE 20.7 mph 31.1 mph N/A Snow Light Snow
2:32 PM 27.0 °F 13.2 °F 24.1 °F 89% 30.01 in 1.0 mi NNE 20.7 mph 31.1 mph N/A Snow Light Snow
2:53 PM 28.0 °F 13.9 °F 24.1 °F 85% 30.02 in 1.2 mi NNE 23.0 mph 31.1 mph N/A Snow Light Snow
3:09 PM 28.0 °F 14.9 °F 25.0 °F 88% 30.00 in 2.0 mi NNE 19.6 mph 27.6 mph N/A Snow Light Snow
3:25 PM 28.0 °F 14.3 °F 24.1 °F 85% 30.00 in 3.0 mi North 21.9 mph 28.8 mph N/A Snow Light Snow
3:33 PM 28.0 °F 16.5 °F 25.0 °F 88% 30.00 in 2.5 mi North 15.0 mph - N/A Snow Light Snow
3:41 PM 28.0 °F 15.3 °F 24.1 °F 85% 30.00 in 3.0 mi North 18.4 mph 26.5 mph N/A Snow Light Snow
3:53 PM 28.0 °F 13.9 °F 23.0 °F 81% 30.02 in 7.0 mi North 23.0 mph 31.1 mph N/A   Overcast
4:21 PM 28.9 °F 16.5 °F 21.9 °F 75% 30.00 in 10.0 mi NNE 18.4 mph 28.8 mph N/A   Partly Cloudy
4:53 PM 28.9 °F 15.4 °F 19.9 °F 69% 30.02 in 10.0 mi NNE 21.9 mph 29.9 mph N/A   Partly Cloudy
5:53 PM 28.0 °F 15.3 °F 19.0 °F 69% 30.04 in 10.0 mi NNE 18.4 mph 26.5 mph N/A   Clear
6:53 PM 28.0 °F 18.1 °F 18.0 °F 66% 30.06 in 10.0 mi North 11.5 mph - N/A   Clear
7:53 PM 27.0 °F 15.6 °F 16.0 °F 63% 30.07 in 10.0 mi North 13.8 mph - N/A   Overcast
8:53 PM 27.0 °F 17.3 °F 16.0 °F 63% 30.09 in 10.0 mi North 10.4 mph - N/A   Mostly Cloudy
9:53 PM 25.0 °F 14.2 °F 14.0 °F 63% 30.09 in 10.0 mi NNE 11.5 mph - N/A   Clear
10:53 PM 24.1 °F 14.4 °F 12.9 °F 62% 30.09 in 10.0 mi North 9.2 mph - N/A   Clear
11:53 PM 21.9 °F 11.7 °F 16.0 °F 78% 30.09 in 10.0 mi North 9.2 mph - N/A   Clear